Seretse Khama, Botswana

9:46 PM CAT on March 30, 2017 (GMT +0200)
Sir Seretse Khama International

Weather History for FBSK - October, 2011

Change the Weather History Date:

Saturday, October 8, 2011

  Actual Average Record
Temperature  
Mean Temperature 66 °F -  
Max Temperature 84 °F 85 °F 100 °F (2015)
Min Temperature 49 °F 61 °F 50 °F (2011)
Cooling Degree Days 2    
Growing Degree Days 16 (Base 50)    
Moisture  
Dew Point 31 °F    
Average Humidity 28    
Maximum Humidity 58    
Minimum Humidity 7    
Precipitation  
Precipitation 0.00 in - - ()
Sea Level Pressure  
Sea Level Pressure 30.25 in    
Wind  
Wind Speed 7 mph ()    
Max Wind Speed 14 mph    
Max Gust Speed -    
Visibility 6.0 miles    
Events      
Averages and records for this station are not official NWS values.
T = Trace of Precipitation, MM = Missing Value Source: Averaged Metar Reports

Daily Weather History Graph

Daily Weather History Graph

Search for Another Location

Airport or City:

Trip Planner

Search our weather history database for the weather conditions in past years. The results will help you decide how hot, cold, wet, or windy it might be!

Date:

Astronomy

Oct. 08, 2011 Rise Set
Actual Time 5:49 AM CAT 6:18 PM CAT
Civil Twilight 5:26 AM CAT 6:41 PM CAT
Nautical Twilight 5:00 AM CAT 7:08 PM CAT
Astronomical Twilight 4:32 AM CAT 7:35 PM CAT
Moon 3:25 PM CAT (10/8) 3:25 AM CAT (10/8)
Length of Visible Light 13h 14m
Length of Day
12h 28m
Waxing Gibbous, 88% of the Moon is Illuminated
Oct 8
Waxing Gibbous
Oct 12
Full
Oct 20
Last Quarter
Oct 26
New
Nov 2
First Quarter

Hourly Weather History & Observations

Time (CAT) Temp. Dew Point Humidity Pressure Visibility Wind Dir Wind Speed Gust Speed Precip Events Conditions
12:00 AM 55.4 °F 32.0 °F 41% 30.30 in - SE 6.9 mph - N/A   Clear
1:00 AM 55.4 °F 32.0 °F 41% 30.27 in - SE 5.8 mph - N/A   Clear
2:00 AM 54 °F 32 °F 31%  in 6 mi SSE 4.6 mph - -  
2:00 AM 55.4 °F 32.0 °F 41% 30.27 in - SSE 4.6 mph - N/A   Clear
3:00 AM 53.6 °F 33.8 °F 47% 30.27 in - SSE 6.9 mph - N/A   Clear
5:00 AM 50.0 °F 35.6 °F 58% 30.27 in - ESE 5.8 mph - N/A   Clear
6:00 AM 50.0 °F 33.8 °F 54% 30.30 in - SSE 6.9 mph - N/A   Clear
7:00 AM 57.2 °F 35.6 °F 44% 30.33 in - East 5.8 mph - N/A   Clear
8:00 AM 65 °F 37 °F 25%  in 6 mi ENE 9.2 mph - -  
8:00 AM 64.4 °F 37.4 °F 37% 30.33 in - ENE 9.2 mph - N/A   Clear
9:00 AM 68.0 °F 37.4 °F 33% 30.33 in - NE 9.2 mph - N/A   Clear
10:00 AM 73.4 °F 37.4 °F 27% 30.33 in - NE 8.1 mph - N/A   Clear
11:00 AM 75.2 °F 37.4 °F 25% 30.30 in - East 8.1 mph - N/A   Clear
12:00 PM 78.8 °F 35.6 °F 21% 30.27 in - ENE 12.7 mph - N/A   Clear
1:00 PM 80.6 °F 33.8 °F 18% 30.24 in - NE 13.8 mph - N/A   Clear
2:00 PM 82 °F 29 °F 7%  in 6 mi NE 11.5 mph - -  
2:00 PM 82.4 °F 28.4 °F 14% 30.21 in - NE 11.5 mph - N/A   Clear
3:00 PM 84.2 °F 23.0 °F 11% 30.18 in - ENE 11.5 mph - N/A   Clear
4:00 PM 84.2 °F 21.2 °F 10% 30.18 in - NE 9.2 mph - N/A   Clear
5:00 PM 82.4 °F 21.2 °F 10% 30.18 in - ENE 8.1 mph - N/A   Clear
6:00 PM 80.6 °F 24.8 °F 13% 30.18 in - NNE 8.1 mph - N/A   Clear
7:00 PM 75.2 °F 23.0 °F 14% 30.18 in - NE 5.8 mph - N/A   Clear
8:00 PM 66.2 °F 24.8 °F 21% 30.21 in - NNE 3.5 mph - N/A   Clear
9:00 PM 60.8 °F 26.6 °F 27% 30.24 in - ESE 4.6 mph - N/A   Clear
10:00 PM 60.8 °F 26.6 °F 27% 30.24 in - ESE 4.6 mph - N/A   Clear
11:00 PM 60.8 °F 28.4 °F 29% 30.24 in - SE 5.8 mph - N/A   Clear